Sulphur, LA

5:12 PM CDT on July 26, 2017 (GMT -0500)
Sulphur

Weather History for KUXL - November, 2012

Change the Weather History Date:

Monday, November 12, 2012

  Actual Average (KLCH) Record (KLCH)
Temperature  
Mean Temperature 58 °F -  
Max Temperature 69 °F 70 °F 88 °F (1917)
Min Temperature 46 °F 48 °F 29 °F (1950)
Degree Days  
Heating Degree Days 8    
Growing Degree Days 8 (Base 50)    
Moisture  
Dew Point 45 °F    
Average Humidity 64    
Maximum Humidity 100    
Minimum Humidity 30    
Precipitation  
Precipitation 0.03 in - - ()
Sea Level Pressure  
Sea Level Pressure 30.31 in    
Wind  
Wind Speed 12 mph (North)    
Max Wind Speed 25 mph    
Max Gust Speed 33 mph    
Visibility 10 miles    
Events Rain    
Averages and records for this station are not official NWS values.
T = Trace of Precipitation, MM = Missing Value Source: NWS Daily Summary

Daily Weather History Graph

Daily Weather History Graph

Search for Another Location

Airport or City:

Trip Planner

Search our weather history database for the weather conditions in past years. The results will help you decide how hot, cold, wet, or windy it might be!

Date:

Astronomy

Nov. 12, 2012 Rise Set
Actual Time 6:36 AM CST 5:18 PM CST
Civil Twilight 6:11 AM CST 5:43 PM CST
Nautical Twilight 5:42 AM CST 6:12 PM CST
Astronomical Twilight 5:14 AM CST 6:40 PM CST
Moon 5:06 AM CST (11/12) 4:22 PM CST (11/12)
Length of Visible Light 11h 32m
Length of Day
10h 41m
Waning Crescent, 2% of the Moon is Illuminated
Nov 12
Waning Crescent
Nov 13
New
Nov 20
First Quarter
Nov 28
Full
Dec 6
Last Quarter

Hourly Weather History & Observations

Time (CST) Temp. Windchill Dew Point Humidity Pressure Visibility Wind Dir Wind Speed Gust Speed Precip Events Conditions
12:15 AM 69.8 °F - 69.8 °F 100% 30.08 in 1.2 mi Calm Calm - N/A   Mostly Cloudy
12:55 AM 68.0 °F - 68.0 °F 100% 30.10 in 5.0 mi NW 25.3 mph 31.1 mph N/A   Overcast
1:15 AM 60.8 °F - 59.0 °F 94% 30.13 in 10.0 mi NNW 25.3 mph 33.4 mph N/A Rain Rain
1:55 AM 57.2 °F - 55.4 °F 94% 30.15 in 10.0 mi North 16.1 mph 24.2 mph 0.02 in   Overcast
2:15 AM 57.2 °F - 55.4 °F 94% 30.16 in 10.0 mi North 13.8 mph 21.9 mph N/A   Overcast
2:35 AM 57.2 °F - 55.4 °F 94% 30.16 in 10.0 mi North 15.0 mph 23.0 mph N/A   Overcast
2:55 AM 55.4 °F - 55.4 °F 100% 30.17 in 7.0 mi North 12.7 mph 17.3 mph 0.01 in Rain Light Rain
3:15 AM 57.2 °F - 53.6 °F 88% 30.17 in 10.0 mi North 13.8 mph 21.9 mph N/A   Overcast
3:35 AM 57.2 °F - 53.6 °F 88% 30.18 in 10.0 mi North 16.1 mph 23.0 mph N/A   Overcast
3:55 AM 57.2 °F - 53.6 °F 88% 30.19 in 10.0 mi North 12.7 mph 16.1 mph N/A   Overcast
4:15 AM 57.2 °F - 53.6 °F 88% 30.19 in 10.0 mi North 10.4 mph 21.9 mph N/A   Overcast
4:35 AM 57.2 °F - 51.8 °F 82% 30.21 in 10.0 mi North 12.7 mph 20.7 mph N/A   Overcast
4:55 AM 57.2 °F - 51.8 °F 82% 30.22 in 10.0 mi North 9.2 mph - N/A   Overcast
5:15 AM 57.2 °F - 51.8 °F 82% 30.22 in 10.0 mi North 10.4 mph 18.4 mph N/A   Overcast
5:35 AM 57.2 °F - 51.8 °F 82% 30.23 in 10.0 mi North 11.5 mph 17.3 mph N/A   Overcast
5:55 AM 55.4 °F - 51.8 °F 88% 30.24 in 10.0 mi North 9.2 mph - N/A   Overcast
6:55 AM 57.2 °F - 51.8 °F 82% 30.29 in 10.0 mi North 6.9 mph - N/A   Overcast
7:15 AM 55.4 °F - 51.8 °F 88% 30.30 in 10.0 mi North 8.1 mph - N/A   Overcast
7:35 AM 57.2 °F - 51.8 °F 82% 30.31 in 10.0 mi North 6.9 mph - N/A   Overcast
7:55 AM 57.2 °F - 51.8 °F 82% 30.31 in 10.0 mi North 8.1 mph - N/A   Overcast
8:15 AM 59.0 °F - 51.8 °F 77% 30.32 in 10.0 mi North 12.7 mph 19.6 mph N/A   Overcast
8:35 AM 59.0 °F - 51.8 °F 77% 30.33 in 10.0 mi North 10.4 mph - N/A   Overcast
8:55 AM 59.0 °F - 51.8 °F 77% 30.34 in 10.0 mi North 12.7 mph 18.4 mph N/A   Overcast
9:15 AM 59.0 °F - 53.6 °F 82% 30.34 in 10.0 mi North 12.7 mph 18.4 mph N/A   Scattered Clouds
9:35 AM 60.8 °F - 51.8 °F 72% 30.34 in 10.0 mi North 16.1 mph 20.7 mph N/A   Clear
9:55 AM 62.6 °F - 51.8 °F 68% 30.34 in 10.0 mi North 16.1 mph 21.9 mph N/A   Clear
10:15 AM 62.6 °F - 51.8 °F 68% 30.34 in 10.0 mi North 12.7 mph 19.6 mph N/A   Clear
10:35 AM 64.4 °F - 51.8 °F 64% 30.34 in 10.0 mi North 11.5 mph 20.7 mph N/A   Clear
10:55 AM 64.4 °F - 46.4 °F 52% 30.34 in 10.0 mi North 17.3 mph 25.3 mph N/A   Clear
11:15 AM 64.4 °F - 44.6 °F 49% 30.33 in 10.0 mi North 15.0 mph 26.5 mph N/A   Clear
11:35 AM 68.0 °F - 42.8 °F 40% 30.34 in 10.0 mi North 16.1 mph 20.7 mph N/A   Clear
11:55 AM 66.2 °F - 41.0 °F 40% 30.33 in 10.0 mi NNW 18.4 mph 25.3 mph N/A   Clear
12:15 PM 68.0 °F - 35.6 °F 30% 30.32 in 10.0 mi North 15.0 mph 26.5 mph N/A   Clear
12:35 PM 68.0 °F - 41.0 °F 37% 30.32 in 10.0 mi NNW 17.3 mph 23.0 mph N/A   Clear
12:55 PM 68.0 °F - 39.2 °F 35% 30.31 in 10.0 mi North 12.7 mph 20.7 mph N/A   Clear
1:15 PM 68.0 °F - 37.4 °F 33% 30.31 in 10.0 mi North 17.3 mph 23.0 mph N/A   Clear
1:35 PM 66.2 °F - 37.4 °F 35% 30.31 in 10.0 mi North 13.8 mph 23.0 mph N/A   Clear
1:55 PM 68.0 °F - 37.4 °F 33% 30.31 in 10.0 mi North 12.7 mph 21.9 mph N/A   Clear
2:15 PM 66.2 °F - 35.6 °F 32% 30.31 in 10.0 mi North 15.0 mph 21.9 mph N/A   Clear
2:35 PM 66.2 °F - 35.6 °F 32% 30.30 in 10.0 mi North 16.1 mph 24.2 mph N/A   Clear
2:55 PM 66.2 °F - 35.6 °F 32% 30.31 in 10.0 mi North 13.8 mph 23.0 mph N/A   Clear
3:15 PM 66.2 °F - 33.8 °F 30% 30.31 in 10.0 mi North 13.8 mph 19.6 mph N/A   Clear
3:35 PM 64.4 °F - 33.8 °F 32% 30.32 in 10.0 mi North 10.4 mph 21.9 mph N/A   Clear
3:55 PM 64.4 °F - 32.0 °F 30% 30.33 in 10.0 mi North 16.1 mph - N/A   Clear
4:35 PM 62.6 °F - 35.6 °F 37% 30.33 in 10.0 mi North 13.8 mph 19.6 mph N/A   Clear
4:55 PM 60.8 °F - 35.6 °F 39% 30.34 in 10.0 mi NNE 10.4 mph - N/A   Clear
5:15 PM 60.8 °F - 35.6 °F 39% 30.35 in 10.0 mi North 10.4 mph - N/A   Clear
5:35 PM 59.0 °F - 39.2 °F 48% 30.35 in 10.0 mi North 8.1 mph - N/A   Clear
5:55 PM 57.2 °F - 41.0 °F 55% 30.37 in 10.0 mi North 6.9 mph - N/A   Clear
6:15 PM 57.2 °F - 37.4 °F 48% 30.37 in 10.0 mi North 8.1 mph - N/A   Clear
6:55 PM 55.4 °F - 37.4 °F 51% 30.40 in 10.0 mi North 10.4 mph 18.4 mph N/A   Clear
7:15 PM 55.4 °F - 37.4 °F 51% 30.41 in 10.0 mi North 10.4 mph - N/A   Clear
7:35 PM 55.4 °F - 39.2 °F 54% 30.41 in 10.0 mi North 10.4 mph - N/A   Clear
7:55 PM 53.6 °F - 39.2 °F 58% 30.42 in 10.0 mi North 9.2 mph - N/A   Clear
8:15 PM 53.6 °F - 39.2 °F 58% 30.42 in 10.0 mi NNE 6.9 mph - N/A   Clear
8:35 PM 51.8 °F - 39.2 °F 62% 30.42 in 10.0 mi NNE 4.6 mph - N/A   Clear
8:55 PM 50.0 °F - 41.0 °F 71% 30.42 in 10.0 mi NNE 4.6 mph - N/A   Clear
9:15 PM 50.0 °F - 39.2 °F 66% 30.43 in 10.0 mi NNE 4.6 mph - N/A   Clear
9:35 PM 51.8 °F - 37.4 °F 58% 30.43 in 10.0 mi North 8.1 mph - N/A   Clear
9:55 PM 50.0 °F - 35.6 °F 58% 30.43 in 10.0 mi North 9.2 mph - N/A   Clear
10:15 PM 50.0 °F - 35.6 °F 58% 30.44 in 10.0 mi North 9.2 mph - N/A   Clear
10:35 PM 46.4 °F 43.5 °F 39.2 °F 76% 30.44 in 10.0 mi North 5.8 mph - N/A   Clear
10:55 PM 46.4 °F 42.9 °F 37.4 °F 71% 30.44 in 10.0 mi North 6.9 mph - N/A   Clear
11:15 PM 46.4 °F 42.4 °F 37.4 °F 71% 30.43 in 10.0 mi North 8.1 mph - N/A   Clear
11:35 PM 46.4 °F 42.9 °F 37.4 °F 71% 30.43 in 10.0 mi North 6.9 mph - N/A   Clear
11:55 PM 46.4 °F 41.9 °F 37.4 °F 71% 30.42 in 10.0 mi North 9.2 mph - N/A   Clear